This is the latest recevied weather packets stored in our database for station/object N4ASP-13. If no packets are shown the sender has not sent any weather packets the latest 10 day(s).
| Time | Temp. | Humidity | Pressure | Rain* | Wind** | Luminosity | Snow |
|---|---|---|---|---|---|---|---|
| 1777301134 | 10.56° C | 81% | 1023.3 hPa | 0 mm | - | 554 W/m² | - |
| 1777301072 | 10.56° C | 81% | 1023.2 hPa | 0 mm | - | 554 W/m² | - |
| 1777301013 | 10.56° C | 80% | 1023.3 hPa | 0 mm | - | 503 W/m² | - |
| 1777300951 | 10.56° C | 80% | 1023.5 hPa | 0 mm | - | 455 W/m² | - |
| 1777300893 | 10.56° C | 80% | 1023.5 hPa | 0 mm | - | 492 W/m² | - |
| 1777300833 | 10.56° C | 80% | 1023.6 hPa | 0 mm | - | 526 W/m² | - |
| 1777300772 | 10.56° C | 81% | 1023.5 hPa | 0 mm | - | 526 W/m² | - |
| 1777300713 | 10.56° C | 81% | 1023.6 hPa | 0 mm | - | 527 W/m² | - |
| 1777300652 | 10.56° C | 80% | 1023.6 hPa | 0 mm | - | 563 W/m² | - |
| 1777300591 | 10.56° C | 81% | 1023.6 hPa | 0 mm | - | 568 W/m² | - |
| 1777300530 | 10.56° C | 81% | 1023.6 hPa | 0 mm | - | 552 W/m² | - |
| 1777300469 | 10.56° C | 81% | 1023.6 hPa | 0 mm | - | 591 W/m² | - |
| 1777300409 | 10° C | 81% | 1023.6 hPa | 0 mm | - | 643 W/m² | - |
| 1777300349 | 10° C | 82% | 1023.7 hPa | 0 mm | - | 596 W/m² | - |
| 1777300288 | 10° C | 82% | 1023.6 hPa | 0 mm | - | 566 W/m² | - |
| 1777300226 | 10° C | 82% | 1023.6 hPa | 0 mm | - | 536 W/m² | - |
| 1777300167 | 10° C | 81% | 1023.6 hPa | 0 mm | - | 555 W/m² | - |
| 1777300106 | 10° C | 81% | 1023.7 hPa | 0 mm | - | 566 W/m² | - |
| 1777300047 | 10° C | 81% | 1023.7 hPa | 0 mm | - | 550 W/m² | - |
| 1777299985 | 10° C | 82% | 1023.6 hPa | 0 mm | - | 517 W/m² | - |
| 1777299924 | 10° C | 81% | 1023.7 hPa | 0 mm | - | 548 W/m² | - |
| 1777299862 | 10° C | 82% | 1023.6 hPa | 0 mm | - | 454 W/m² | - |
| 1777299802 | 10° C | 82% | 1023.6 hPa | 0 mm | - | 454 W/m² | - |
| 1777299742 | 10° C | 82% | 1023.6 hPa | 0 mm | - | 425 W/m² | - |
| 1777299681 | 9.44° C | 82% | 1023.6 hPa | 0 mm | - | 417 W/m² | - |
* Rain latest hour (hover to see other rain measurements)
** Current wind speed in m/s (hover to see current wind gust speed)